Location: Bern�tre
(50.1974°N, 2.0915°E)
Time: 06:30:58
(UTC+00:00)

Cosmos 1300 Rocket - Pass Details

Date: 18 September 2020
Orbit: 601 x 627 km, 82.5° (Epoch: 27 October)

Event Time Altitude Azimuth Distance (km) Brightness Sun altitude
Rises 19:54:16 0° 199° (SSW) 2,879 6.9 -18.8°
Reaches altitude 10° 19:56:31 10° 203° (SSW) 1,982 6.1 -19.1°
Maximum altitude 20:00:51 58° 283° (WNW) 730 4.2 -19.7°
Drops below altitude 10° 20:05:15 10° 3° (N) 2,011 6.5 -20.3°
Sets 20:07:32 0° 8° (N) 2,925 7.3 -20.6°
